Location: B?ezina
(49.8085°N, 13.6013°E)
Time: 06:15:36
(UTC+00:00)

Okean O Rocket - Pass Details

Date: 19 May 2025
Orbit: 614 x 636 km, 98.0° (Epoch: 14 June)

Event Time Altitude Azimuth Distance (km) Brightness Sun altitude
Exits shadow 19:57:25 - 183° (S) 2,711 4.4 -9.2°
Reaches altitude 10° 19:59:12 10° 189° (S) 2,000 3.8 -9.4°
Maximum altitude 20:03:22 44° 261° (W) 874 2.6 -9.8°
Drops below altitude 10° 20:07:32 10° 334° (NNW) 2,002 5.6 -10.3°
Sets 20:09:49 0° 341° (NNW) 2,910 6.4 -10.5°
